Terminal Aerodrome Forecast
Issued by NWS Blacksburg, VA

Home | Current Version | Previous Version | Text Only | Print | Product List | Glossary On
Versions: 1 2 3 4 5 6 7 8 9 10 11 12 13 14 15 16 17 18 19 20 21 22 23 24 25 26 27 28 29 30 31 32 33 34 35 36
000
FTUS41 KRNK 061724 CCA
TAFROA
TAF COR
KROA 061724Z 0618/0718 11008G16KT 6SM -RA SCT007 OVC015
      TEMPO 0618/0620 1 1/2SM RA BR OVC007
     FM062200 VRB03KT 3SM -DZ BR OVC005
     FM070600 29007KT P6SM SCT015 BKN050
     FM071200 30007KT P6SM SCT050 BKN250=

USA.gov is the U.S. government's official web portal to all federal, state and local government web resources and services.